Orbital Elements at Epoch 2459000.5 (2020-May-31.0) TDB
Reference: JPL 25 (heliocentric ecliptic J2000)
Element | Value | Uncertainty (1-sigma) | Units |
e | .09621403125368652 | 4.2926e-08 | |
a | 2.965996910147696 | 1.9536e-08 | au |
q | 2.680626390736407 | 1.2625e-07 | au |
i | 13.88319507230956 | 4.4897e-06 | deg |
node | 99.0579725363431 | 2.2641e-05 | deg |
peri | 124.2799720338498 | 3.5521e-05 | deg |
M | 109.9454896077979 | 2.8471e-05 | deg |
tp | 2458430.690894289150 (2018-Nov-08.19089429) | 0.0001461 | TDB |
period | 1865.754373259502 5.11 | 1.8434e-05 5.047e-08 | d yr |
n | .1929514437482327 | 1.9064e-09 | deg/d |
Q | 3.251367429558984 | 2.1416e-08 | au |
|
| | Orbit Determination Parameters
Additional Information
|